TimeMST,TemperatureF,Dew PointF,Humidity,Sea Level PressureIn,VisibilityMPH,Wind Direction,Wind SpeedMPH,Gust SpeedMPH,PrecipitationIn,Events,Conditions,WindDirDegrees,DateUTC
12:54 AM,62.1,54.0,75,29.90,10.0,ENE,9.2,-,N/A,,Partly Cloudy,70,2013-07-16 07:54:00
1:54 AM,62.1,54.0,75,29.90,10.0,ENE,6.9,-,N/A,,Clear,70,2013-07-16 08:54:00
2:54 AM,59.0,52.0,78,29.94,10.0,NE,3.5,-,N/A,,Clear,50,2013-07-16 09:54:00
3:54 AM,55.0,51.1,86,29.96,10.0,Calm,Calm,-,N/A,,Scattered Clouds,0,2013-07-16 10:54:00
4:54 AM,57.0,51.1,81,29.95,10.0,NE,3.5,-,N/A,,Clear,50,2013-07-16 11:54:00
5:54 AM,59.0,52.0,78,29.95,10.0,ENE,3.5,-,N/A,,Clear,70,2013-07-16 12:54:00
6:54 AM,59.0,53.1,81,29.98,10.0,Calm,Calm,-,N/A,,Partly Cloudy,0,2013-07-16 13:54:00
7:54 AM,62.1,55.0,78,30.00,10.0,Calm,Calm,-,N/A,,Clear,0,2013-07-16 14:54:00
8:54 AM,71.1,53.1,53,29.98,10.0,SSW,6.9,-,N/A,,Scattered Clouds,200,2013-07-16 15:54:00
9:54 AM,70.0,51.1,51,29.99,10.0,South,3.5,-,N/A,,Clear,180,2013-07-16 16:54:00
10:54 AM,72.0,51.1,48,29.98,10.0,SSW,5.8,-,N/A,,Clear,210,2013-07-16 17:54:00
11:54 AM,73.9,50.0,43,29.97,10.0,SSW,3.5,-,N/A,,Clear,210,2013-07-16 18:54:00
12:54 PM,77.0,48.9,37,29.94,10.0,Variable,4.6,-,N/A,,Scattered Clouds,0,2013-07-16 19:54:00
1:54 PM,78.1,46.9,33,29.92,10.0,Variable,3.5,-,N/A,,Overcast,0,2013-07-16 20:54:00
2:45 PM,64.4,57.2,77,30.26,1.8,SSW,11.5,27.6,0.06,Rain,Light Rain,200,2013-07-16 21:45:00
2:49 PM,62.6,57.2,82,30.28,0.8,Variable,5.8,27.6,0.16,Rain,Rain,0,2013-07-16 21:49:00
2:54 PM,62.1,57.0,84,30.04,1.2,WNW,5.8,-,0.29,Rain,Rain,300,2013-07-16 21:54:00
3:27 PM,60.8,57.2,88,30.28,2.5,WSW,3.5,-,N/A,Rain,Rain,240,2013-07-16 22:27:00
3:54 PM,61.0,57.9,90,30.05,2.5,West,3.5,-,N/A,Rain,Rain,260,2013-07-16 22:54:00
4:01 PM,60.8,57.2,88,30.27,5.0,Calm,Calm,-,0.00,Rain,Rain,0,2013-07-16 23:01:00
4:54 PM,62.1,59.0,90,30.05,6.0,South,4.6,-,0.02,Rain,Rain,180,2013-07-16 23:54:00
5:54 PM,62.1,59.0,90,30.03,10.0,Calm,Calm,-,0.02,Rain,Rain,0,2013-07-17 00:54:00
6:54 PM,61.0,57.0,87,30.06,10.0,Calm,Calm,-,0.00,Rain,Rain,0,2013-07-17 01:54:00
7:01 PM,60.8,57.2,88,30.29,10.0,Calm,Calm,-,0.00,,Overcast,0,2013-07-17 02:01:00
7:54 PM,61.0,57.9,90,30.05,10.0,Calm,Calm,-,0.00,,Overcast,0,2013-07-17 02:54:00
8:54 PM,60.1,57.0,90,30.04,10.0,Calm,Calm,-,N/A,,Overcast,0,2013-07-17 03:54:00
9:54 PM,59.0,55.9,90,30.05,10.0,Calm,Calm,-,N/A,,Scattered Clouds,0,2013-07-17 04:54:00
10:54 PM,59.0,57.0,93,30.04,10.0,Calm,Calm,-,N/A,,Partly Cloudy,0,2013-07-17 05:54:00
11:54 PM,59.0,55.9,90,30.03,10.0,Calm,Calm,-,N/A,,Clear,0,2013-07-17 06:54:00